CW3081 Weather Reports


time (UTC)temp
C
wind
direction
speed
KPH
gust
KPH
rain 1hr
cm
rain 24hr
cm
rain mn
cm
humidity
%
barometer
mb
20260905024600 25 0 0.0 0.0 0.00 0.00 0.00 84 1015.1
20260905023054 25 0 0.0 0.0 0.00 0.00 0.00 84 1015.0
20260905021550 25 0 0.0 0.0 0.00 0.00 0.00 83 1014.9
20260905014558 25 0 0.0 0.0 0.00 0.00 0.00 83 1015.0
20260905013055 25 0 0.0 0.0 0.00 0.00 0.00 82 1014.8
20260905011554 26 0 0.0 1.6 0.00 0.00 0.00 81 1014.7
20260905010104 26 0 0.0 0.0 0.00 0.00 0.00 80 1014.6
20260905004551 27 0 0.0 0.0 0.00 0.00 0.00 77 1014.3
20260905003055 27 0 0.0 0.0 0.00 0.00 0.00 76 1014.3
20260905001551 27 0 0.0 0.0 0.00 0.00 0.00 73 1014.2
20260904234600 30 0 0.0 0.0 0.00 0.00 0.00 66 1014.0
20260904233054 30 0 0.0 1.6 0.00 0.00 0.00 61 1014.0
20260904231551 31 139 0.0 3.2 0.00 0.00 0.00 60 1014.3
20260904230057 32 188 0.0 3.2 0.00 0.00 0.00 59 1014.4
20260904224605 33 0 0.0 3.2 0.00 0.00 0.00 60 1014.3
20260904223055 33 0 0.0 0.0 0.00 0.00 0.00 65 1013.9
20260904221600 33 0 0.0 0.0 0.00 0.00 0.00 63 1013.8
20260904220100 33 0 0.0 0.0 0.00 0.00 0.00 61 1013.6
20260904214558 33 0 0.0 1.6 0.00 0.00 0.00 61 1013.9
20260904213054 33 0 0.0 1.6 0.00 0.00 0.00 60 1013.9
20260904211558 34 0 0.0 1.6 0.00 0.00 0.00 61 1014.0
20260904210107 33 0 0.0 1.6 0.00 0.00 0.00 58 1014.0
20260904204601 34 0 0.0 1.6 0.00 0.00 0.00 61 1014.1
20260904203054 34 0 0.0 1.6 0.00 0.00 0.00 60 1014.4
20260904201610 34 83 0.0 4.8 0.00 0.00 0.00 58 1014.7
20260904200100 34 346 0.0 3.2 0.00 0.00 0.00 58 1014.9
20260904194605 34 0 0.0 1.6 0.00 0.00 0.00 58 1015.2
20260904193058 34 321 0.0 1.6 0.00 0.00 0.00 57 1015.3
20260904191551 34 0 0.0 1.6 0.00 0.00 0.00 60 1015.6
20260904184602 33 0 0.0 1.6 0.00 0.00 0.00 61 1016.0
20260904183100 35 264 0.0 3.2 0.00 0.00 0.00 55 1016.0
20260904181549 35 349 1.6 3.2 0.00 0.00 0.00 55 1016.2
20260904174602 34 0 0.0 1.6 0.00 0.00 0.00 60 1016.3
20260904173057 34 2 0.0 3.2 0.00 0.00 0.00 58 1016.5
20260904171558 33 0 0.0 1.6 0.00 0.00 0.00 64 1016.7
20260904170054 33 0 0.0 0.0 0.00 0.00 0.00 65 1017.0
20260904164600 33 0 0.0 1.6 0.00 0.00 0.00 70 1017.1
20260904163055 32 0 0.0 1.6 0.00 0.00 0.00 68 1017.2
20260904161551 32 0 0.0 1.6 0.00 0.00 0.00 73 1017.3
20260904160053 31 0 0.0 0.0 0.00 0.00 0.00 74 1017.3
20260904154600 31 0 0.0 0.0 0.00 0.00 0.00 75 1017.3
20260904153054 30 0 0.0 0.0 0.00 0.00 0.00 78 1017.3
20260904151551 30 0 0.0 0.0 0.00 0.00 0.00 79 1017.3
20260904150054 29 0 0.0 1.6 0.00 0.00 0.00 82 1017.3
20260904144601 28 0 0.0 0.0 0.00 0.00 0.00 84 1017.2
20260904143052 -17 0.0 0.0 0.00 0.00 0.00 1017.1
20260904141605 -17 0.0 0.0 0.00 0.00 0.00 1017.1
20260904140106 -17 0.0 0.0 0.00 0.00 0.00 1017.1
20260904134605 -17 0.0 0.0 0.00 0.00 0.00 1017.0
20260904133055 -17 0.0 0.0 0.00 0.00 0.00 1017.1
20260904131558 -17 0.0 0.0 0.00 0.00 0.00 1016.9
20260904130059 -17 0.0 0.0 0.00 0.00 0.00 1016.7
20260904124559 -17 0.0 0.0 0.00 0.00 0.00 1016.8
20260904123058 -17 0.0 0.0 0.00 0.00 0.00 1016.5
20260904121552 -17 0.0 0.0 0.00 0.00 0.00 1016.4
20260904120056 -17 0.0 0.0 0.00 0.00 0.00 1016.3
20260904114559 -17 0.0 0.0 0.00 0.00 0.00 1016.2
20260904113052 -17 0.0 0.0 0.00 0.00 0.00 1015.9
20260904111553 -17 0.0 0.0 0.00 0.00 0.00 1015.7
20260904110107 -17 0.0 0.0 0.00 0.00 0.00 1015.7
20260904104549 -17 0.0 0.0 0.00 0.00 0.00 1015.7
20260904103058 -17 0.0 0.0 0.00 0.00 0.00 1015.7
20260904101552 -17 0.0 0.0 0.00 0.00 0.00 1015.5
20260904100057 -17 0.0 0.0 0.00 0.00 0.00 1015.5
20260904094601 -17 0.0 0.0 0.00 0.00 0.00 1015.5
20260904093057 23 0 0.0 0.0 0.00 0.00 0.00 96 1015.5
20260904091552 23 0 0.0 0.0 0.00 0.00 0.00 96 1015.4
20260904084559 23 0 0.0 0.0 0.00 0.00 0.00 95 1015.4
20260904083054 23 0 0.0 0.0 0.00 0.00 0.00 96 1015.3
20260904081552 23 0 0.0 0.0 0.00 0.00 0.00 95 1015.2
20260904080051 23 0 0.0 0.0 0.00 0.00 0.00 95 1015.2
20260904074609 23 0 0.0 0.0 0.00 0.00 0.00 95 1015.3
20260904073058 23 0 0.0 0.0 0.00 0.00 0.00 95 1015.3
20260904071552 23 0 0.0 0.0 0.00 0.00 0.00 95 1015.3
20260904070052 23 0 0.0 0.0 0.00 0.00 0.00 95 1015.3
20260904064557 24 0 0.0 0.0 0.00 0.00 0.00 95 1015.3
20260904063102 24 0 0.0 0.0 0.00 0.00 0.00 95 1015.4
20260904061551 24 0 0.0 0.0 0.00 0.00 0.00 95 1015.4
20260904060106 24 0 0.0 0.0 0.00 0.00 0.00 95 1015.5
20260904054557 24 0 0.0 0.0 0.00 0.00 0.00 94 1015.6
20260904053054 24 0 0.0 0.0 0.00 0.00 0.00 94 1015.5
20260904051609 25 0 0.0 0.0 0.00 0.00 0.00 94 1015.5
20260904050104 25 0 0.0 0.0 0.00 0.00 0.00 94 1015.6
20260904044556 25 0 0.0 0.0 0.00 0.00 0.00 94 1015.7
20260904043052 25 0 0.0 0.0 0.00 0.00 0.00 93 1015.9
20260904041602 25 0 0.0 0.0 0.00 0.00 0.00 94 1015.8
20260904040106 25 0 0.0 0.0 0.00 0.00 0.00 93 1015.8
20260904034556 25 0 0.0 0.0 0.00 0.00 0.00 93 1015.8
20260904033052 26 0 0.0 0.0 0.00 0.00 0.00 93 1016.1
20260904031557 26 0 0.0 0.0 0.00 0.00 0.00 92 1016.0
20260904030100 26 0 0.0 0.0 0.00 0.00 0.00 92 1016.0